STARLINK-32683 (62445 NORAD) Tracking and Keplerian Element Data

This shows tracking and keplerian element data for the satellite.

Feedback or suggestion? Click here.




ElementValue
Catalog62445
NameSTARLINK-32683
Epoch Orbit678
Epoch Day35.01500773
Epoch Year2025
RAAN35.3346
Inclination53.1607
Eccentricity0.0006347
Argument of Perigee203.7121
Mean Anonmoly156.3596
Mean Motion15.49403162
Decay Rate0.0001462
L11 62445U 24251P 25035.01500773 .00014620 00000+0 26943-3 0 9992
L22 62445 53.1607 35.3346 0006347 203.7121 156.3596 15.49403162 6786



Live tracking and technical data element details for STARLINK-32683 (NORAD 62445). STARLINK-32683 can be tracked NOW for your location showing map with azimuth and elevation plus other details from your city location.







IsCatalogInMostPopularTable: catalog: 62445, numindb: 13
Update: records affected: 1



GetName: 62445 STARLINK-32683

Hit Count: updated at: Mon, 19 May 2025 01:42:43 GMT